Location: Sternwarte ZA, Rosenfeld-Brittheim
(48.2889°N, 8.6789°E)
Time: 11:40:03
(UTC+02:00)

ISS - Pass Details

Date: 16 July 2018
Orbit: 402 x 408 km, 51.6° (Epoch: 17 July)

Event Time Altitude Azimuth Distance (km) Brightness Sun altitude
Rises 04:05:14 0° 286° (WNW) 2,331 -0.2 -12.3°
Reaches altitude 10° 04:07:22 10° 292° (WNW) 1,471 -1.1 -12.1°
Maximum altitude 04:10:35 49° 9° (N) 538 -2.8 -11.8°
Drops below altitude 10° 04:13:48 10° 85° (E) 1,471 -0.4 -11.4°
Sets 04:15:55 0° 91° (E) 2,331 0.6 -11.2°
